Date String (YYYY-MM-DD hh:mm:ss) UTC,Instrument flags,absolute air pressure of the measurement (hPa),sample flow rate (lpm),inlet stack bypass flow (lpm),air temperature of the measurement (°C),ambient temperature measured by the external sensor (°C),aerosol sample conditioner tube jacket temperature (°C),OPC LED temperature (°C),internal box temperature (°C),relative humidity of the measurement (%),span deviation,mass concentration of particles derived from Lorenz-Mie calculation of OPC scattering (μg/m³),mass concentration of particles derived from Lorenz-Mie calculation of OPC scattering (μg/m³),mass concentration of particles derived from Lorenz-Mie calculation of OPC scattering (μg/m³)
DateTimeUTC,F1_M11,P_M11,Q1_M11,Q2_M11,T1_M11,T2_M11,T3_M11,T4_M11,T5_M11,U1_M11,ZSPAN_M11,X0_M11,X2_M11,X1_M11
2023-07-24 11:00:00,SystemResetWarning,0834.5,5.00,000.00,029.3,027.2,000.0,037.8,030.8,19.3,0000.0,0008.82,0003.57,0003.34
2023-07-24 11:01:00,SystemResetWarning,0834.5,4.99,000.00,029.3,027.4,000.0,037.8,030.9,19.5,0000.0,0008.92,0003.55,0003.33
2023-07-24 11:02:00,SystemResetWarning,0834.5,5.00,000.00,029.3,027.6,000.0,037.8,030.9,19.6,0000.0,0008.88,0003.52,0003.32
2023-07-24 11:03:00,SystemResetWarning,0834.7,4.99,000.00,029.4,027.8,000.0,037.8,030.9,19.4,0000.0,0008.89,0003.51,0003.30
2023-07-24 11:04:00,SystemResetWarning,0835.2,5.00,000.00,029.4,027.9,000.0,037.8,031.0,19.5,0000.0,0008.68,0003.51,0003.28
2023-07-24 11:05:00,SystemResetWarning,0835.0,5.00,000.00,029.4,028.0,000.0,037.9,031.1,18.6,0000.0,0008.79,0003.52,0003.27
2023-07-24 11:06:00,SystemResetWarning,0835.0,5.00,000.00,029.4,028.1,000.0,037.9,031.1,18.5,0000.0,0008.33,0003.50,0003.26
2023-07-24 11:07:00,SystemResetWarning,0835.0,5.00,000.00,029.5,028.2,000.0,037.9,031.1,18.7,0000.0,0007.52,0003.47,0003.23
2023-07-24 11:08:00,SystemResetWarning,0834.9,5.00,000.00,029.5,028.3,000.0,037.9,031.2,18.8,0000.0,0006.93,0003.46,0003.21
2023-07-24 11:09:00,SystemResetWarning,0835.0,5.00,000.00,029.5,028.4,000.0,037.9,031.2,18.6,0000.0,0007.02,0003.46,0003.20
2023-07-24 11:10:00,SystemResetWarning,0834.6,5.00,000.00,029.6,028.4,000.0,037.9,031.2,18.8,0000.0,0006.93,0003.45,0003.18
2023-07-24 11:11:00,SystemResetWarning,0834.7,5.00,000.00,029.6,028.5,000.0,038.0,031.3,19.5,0000.0,0006.24,0003.45,0003.18
2023-07-24 11:12:00,SystemResetWarning,0834.8,4.99,000.00,029.6,028.4,000.0,038.0,031.3,19.8,0000.0,0006.03,0003.47,0003.18
2023-07-24 11:13:00,SystemResetWarning,0834.7,4.98,000.00,029.6,026.7,000.0,037.9,031.2,19.9,0000.0,0006.89,0003.51,0003.18
2023-07-24 11:14:00,SystemResetWarning,0835.1,5.00,000.00,029.6,025.5,000.0,037.8,031.0,20.0,0000.0,0007.29,0003.56,0003.19
2023-07-24 11:15:00,SystemResetWarning,0835.1,5.01,000.00,029.5,025.5,000.0,037.8,030.8,20.0,0000.0,0007.34,0003.56,0003.18
2023-07-24 11:16:00,SystemResetWarning,0834.5,5.00,000.00,029.4,025.9,000.0,037.8,030.7,19.4,0000.0,0007.52,0003.56,0003.17
2023-07-24 11:17:00,SystemResetWarning,0834.7,4.99,000.00,029.3,026.2,000.0,037.8,030.7,18.4,0000.0,0007.54,0003.56,0003.18
2023-07-24 11:18:00,SystemResetWarning,0834.6,4.99,000.00,029.3,026.6,000.0,037.8,030.8,18.7,0000.0,0007.61,0003.58,0003.18
2023-07-24 11:19:00,SystemResetWarning,0835.1,5.00,000.00,029.3,026.9,000.0,037.8,030.8,18.6,0000.0,0007.72,0003.59,0003.18
2023-07-24 11:20:00,SystemResetWarning,0834.5,5.01,000.00,029.3,027.2,000.0,037.8,030.9,18.3,0000.0,0007.83,0003.58,0003.18
2023-07-24 11:21:00,SystemResetWarning,0834.9,5.01,000.00,029.3,027.4,000.0,037.8,030.9,18.4,0000.0,0008.61,0003.57,0003.18
2023-07-24 11:22:00,SystemResetWarning,0835.0,4.99,000.00,029.4,027.6,000.0,037.9,030.9,18.5,0000.0,0008.69,0003.59,0003.18
2023-07-24 11:23:00,SystemResetWarning,0835.0,5.00,000.00,029.4,027.8,000.0,037.9,031.0,18.4,0000.0,0008.43,0003.57,0003.19
2023-07-24 11:24:00,SystemResetWarning,0835.2,5.00,000.00,029.4,027.9,000.0,037.9,031.0,18.5,0000.0,0008.19,0003.56,0003.18
2023-07-24 11:25:00,SystemResetWarning,0834.8,5.02,000.00,029.4,028.0,000.0,037.9,031.0,18.7,0000.0,0008.05,0003.52,0003.17
2023-07-24 11:26:00,SystemResetWarning,0834.6,5.00,000.00,029.5,028.1,000.0,037.9,031.1,19.4,0000.0,0008.04,0003.50,0003.18
2023-07-24 11:27:00,SystemResetWarning,0834.6,5.00,000.00,029.5,028.2,000.0,037.9,031.1,20.1,0000.0,0007.68,0003.52,0003.18
2023-07-24 11:28:00,SystemResetWarning,0834.6,5.00,000.00,029.5,028.3,000.0,037.9,031.2,20.1,0000.0,0007.65,0003.51,0003.18
2023-07-24 11:29:00,SystemResetWarning,0834.6,4.99,000.00,029.5,028.3,000.0,038.0,031.2,19.3,0000.0,0007.62,0003.51,0003.19
2023-07-24 11:30:00,SystemResetWarning,0835.2,5.00,000.00,029.6,028.4,000.0,038.0,031.2,19.0,0000.0,0007.59,0003.52,0003.20
2023-07-24 11:31:00,SystemResetWarning,0835.0,5.00,000.00,029.6,028.4,000.0,038.0,031.3,18.9,0000.0,0007.60,0003.56,0003.21
2023-07-24 11:32:00,SystemResetWarning,0834.8,5.00,000.00,029.6,028.5,000.0,038.0,031.3,18.7,0000.0,0006.59,0003.61,0003.22
2023-07-24 11:33:00,SystemResetWarning,0834.8,5.00,000.00,029.7,028.5,000.0,038.1,031.3,18.7,0000.0,0006.56,0003.62,0003.22
2023-07-24 11:34:00,SystemResetWarning,0834.8,4.99,000.00,029.7,027.4,000.0,038.0,031.2,18.6,0000.0,0006.52,0003.61,0003.22
2023-07-24 11:35:00,SystemResetWarning,0834.8,5.00,000.00,029.6,025.7,000.0,037.9,031.0,19.0,0000.0,0006.30,0003.59,0003.22
2023-07-24 11:36:00,SystemResetWarning,0834.8,5.01,000.00,029.5,025.5,000.0,037.8,030.8,20.0,0000.0,0006.13,0003.60,0003.23
2023-07-24 11:37:00,SystemResetWarning,0834.8,5.00,000.00,029.4,025.7,000.0,037.8,030.7,19.8,0000.0,0006.11,0003.63,0003.23
2023-07-24 11:38:00,SystemResetWarning,0834.8,5.00,000.00,029.4,026.1,000.0,037.9,030.7,19.4,0000.0,0005.92,0003.63,0003.23
2023-07-24 11:39:00,SystemResetWarning,0835.2,4.99,000.00,029.3,026.5,000.0,037.9,030.7,19.0,0000.0,0007.18,0003.63,0003.23
2023-07-24 11:40:00,SystemResetWarning,0835.3,5.00,000.00,029.3,026.8,000.0,037.9,030.8,19.1,0000.0,0007.17,0003.64,0003.23
2023-07-24 11:41:00,SystemResetWarning,0835.4,5.00,000.00,029.3,027.1,000.0,037.9,030.8,18.9,0000.0,0007.06,0003.62,0003.22
2023-07-24 11:42:00,SystemResetWarning,0835.0,5.00,000.00,029.4,027.4,000.0,037.9,030.9,19.1,0000.0,0006.93,0003.60,0003.22
2023-07-24 11:43:00,SystemResetWarning,0835.3,5.01,000.00,029.4,027.6,000.0,037.9,030.9,19.0,0000.0,0006.75,0003.59,0003.23
2023-07-24 11:44:00,SystemResetWarning,0835.0,4.99,000.00,029.4,027.7,000.0,037.9,031.0,18.8,0000.0,0007.43,0003.60,0003.23
2023-07-24 11:45:00,SystemResetWarning,0834.9,4.99,000.00,029.4,027.9,000.0,037.9,031.0,18.6,0000.0,0008.09,0003.62,0003.23
2023-07-24 11:46:00,SystemResetWarning,0834.8,5.00,000.00,029.4,028.0,000.0,037.9,031.1,18.5,0000.0,0008.14,0003.62,0003.23
2023-07-24 11:47:00,SystemResetWarning,0834.9,5.00,000.00,029.5,028.1,000.0,037.9,031.1,18.5,0000.0,0008.17,0003.64,0003.23
2023-07-24 11:48:00,SystemResetWarning,0834.9,5.00,000.00,029.5,028.2,000.0,037.9,031.1,18.4,0000.0,0008.29,0003.63,0003.23
2023-07-24 11:49:00,SystemResetWarning,0835.0,5.00,000.00,029.5,028.3,000.0,037.9,031.2,18.5,0000.0,0008.27,0003.63,0003.24
2023-07-24 11:50:00,SystemResetWarning,0834.9,5.00,000.00,029.6,028.4,000.0,038.0,031.2,19.0,0000.0,0007.62,0003.64,0003.24
2023-07-24 11:51:00,SystemResetWarning,0834.9,5.00,000.00,029.6,028.4,000.0,038.0,031.2,18.8,0000.0,0007.76,0003.62,0003.24
2023-07-24 11:52:00,SystemResetWarning,0834.9,5.00,000.00,029.6,028.5,000.0,038.0,031.3,18.7,0000.0,0008.17,0003.63,0003.23
2023-07-24 11:53:00,SystemResetWarning,0834.8,5.00,000.00,029.7,028.5,000.0,038.0,031.3,18.6,0000.0,0009.14,0003.62,0003.24
2023-07-24 11:54:00,SystemResetWarning,0835.2,4.98,000.00,029.7,027.9,000.0,038.0,031.3,18.5,0000.0,0009.38,0003.60,0003.23
2023-07-24 11:55:00,SystemResetWarning,0835.1,5.01,000.00,029.6,026.0,000.0,037.9,031.0,18.5,0000.0,0008.73,0003.56,0003.23
2023-07-24 11:56:00,SystemResetWarning,0834.8,5.02,000.00,029.5,025.4,000.0,037.8,030.8,18.5,0000.0,0008.27,0003.56,0003.23
2023-07-24 11:57:00,SystemResetWarning,0834.7,5.00,000.00,029.4,025.7,000.0,037.8,030.7,18.5,0000.0,0008.90,0003.60,0003.24
2023-07-24 11:58:00,SystemResetWarning,0834.8,5.00,000.00,029.4,026.0,000.0,037.8,030.7,18.5,0000.0,0008.95,0003.58,0003.24
2023-07-24 11:59:00,SystemResetWarning,0835.0,4.99,000.00,029.3,026.4,000.0,037.8,030.7,18.5,0000.0,0009.11,0003.59,0003.24
